This demonstration page uses our WeatherBlox Daily Observations layout. Learn more.

Left ArrowRight Arrow

44.89941, -97.11507

Hourly Observations for April 8, 2016

Temp ( °F °C ) Dew Point ( °F °C ) Humidity (%) Winds ( mph kmh ) Pressure ( in mb ) Visibility ( mi km ) Precip ( " mm )
12:53 am 00:53 Cloudy 34 1.1 24 -4.4 67 67 NNW 8 13 30.11 1020 10 16 0.00 0.00
1:53 am 01:53 Cloudy 33 0.6 24 -4.4 70 70 NW 6 9 30.10 1019 10 16 0.00 0.00
2:53 am 02:53 Cloudy 31 -0.6 25 -3.9 79 79 W 7 11 30.09 1019 10 16 0.00 0.00
3:53 am 03:53 Partly Cloudy 29 -1.7 24 -4.4 82 82 W 9 15 30.08 1019 10 16 0.00 0.00
4:53 am 04:53 Partly Cloudy 31 -0.6 25 -3.9 79 79 NW 18 30 30.09 1019 10 16 0.00 0.00
5:53 am 05:53 Mostly Clear 30 -1.1 24 -4.4 79 79 NNW 18 30 30.10 1019 10 16 0.00 0.00
6:17 am 06:17 Mostly Cloudy 29 -1.7 23 -5 78 78 N 16 26 30.15 1021 10 16 0.00 0.00
6:53 am 06:53 Cloudy 28 -2.2 21 -6.1 75 75 N 18 30 30.13 1020 10 16 0.00 0.00
7:53 am 07:53 Mostly Sunny 27 -2.8 17 -8.3 66 66 N 17 28 30.17 1022 10 16 0.00 0.00
8:53 am 08:53 Sunny 28 -2.2 13 -10.6 53 53 N 18 30 30.18 1022 10 16 0.00 0.00
9:53 am 09:53 Sunny 30 -1.1 13 -10.6 49 49 N 22 35 30.19 1022 10 16 0.00 0.00
10:53 am 10:53 Sunny 32 0 13 -10.6 45 45 NNW 23 37 30.21 1023 10 16 0.00 0.00
11:53 am 11:53 Sunny 33 0.6 11 -11.7 40 40 N 24 39 30.23 1024 10 16 0.00 0.00
12:53 pm 12:53 Sunny 35 1.7 7 -13.9 31 31 N 22 35 30.23 1024 10 16 0.00 0.00
1:53 pm 13:53 Sunny 36 2.2 3 -16.1 25 25 NNW 29 46 30.23 1024 10 16 0.00 0.00
2:53 pm 14:53 Sunny 36 2.2 4 -15.6 26 26 NNW 25 41 30.24 1024 10 16 0.00 0.00
3:53 pm 15:53 Sunny 36 2.2 4 -15.6 26 26 N 24 39 30.24 1024 10 16 0.00 0.00
4:53 pm 16:53 Sunny 37 2.8 5 -15 26 26 N 20 31 30.24 1024 10 16 0.00 0.00
5:53 pm 17:53 Sunny 35 1.7 5 -15 28 28 NNW 20 31 30.24 1024 10 16 0.00 0.00
6:53 pm 18:53 Sunny 33 0.6 4 -15.6 29 29 N 18 30 30.25 1024 10 16 0.00 0.00
7:53 pm 19:53 Sunny 29 -1.7 5 -15 36 36 N 13 20 30.26 1025 10 16 0.00 0.00
8:53 pm 20:53 Clear 22 -5.6 5 -15 48 48 NNE 7 11 30.27 1025 10 16 0.00 0.00
9:53 pm 21:53 Clear 21 -6.1 5 -15 50 50 NE 6 9 30.28 1025 10 16 0.00 0.00
10:53 pm 22:53 Clear 20 -6.7 5 -15 52 52 NNE 3 6 30.27 1025 10 16 0.00 0.00
11:53 pm 23:53 Clear 21 -6.1 6 -14.4 52 52 Calm 30.26 1025 10 16 0.00 0.00

Powered by AerisWeather